Afton Municipal Airport, WY

6:22 PM MST on December 12, 2019 (GMT -0700)
Afton Municipal

Weather History for KAFO - August, 2019

Change the Weather History Date:

Saturday, August 17, 2019

  Actual Average Record
Temperature  
Mean Temperature 53 °F -  
Max Temperature 73 °F 80 °F 82 °F (2018)
Min Temperature 33 °F 39 °F 33 °F (2019)
Degree Days  
Heating Degree Days 12    
Growing Degree Days 3 (Base 50)    
Moisture  
Dew Point 32 °F    
Average Humidity 50    
Maximum Humidity 93    
Minimum Humidity 17    
Precipitation  
Precipitation 0.00 in - - ()
Sea Level Pressure  
Sea Level Pressure 30.04 in    
Wind  
Wind Speed 4 mph (WSW)    
Max Wind Speed 22 mph    
Max Gust Speed 32 mph    
Visibility 10 miles    
Events      
Averages and records for this station are not official NWS values.
T = Trace of Precipitation, MM = Missing Value Source: NWS Daily Summary

Daily Weather History Graph

Daily Weather History Graph

Search for Another Location

Airport or City:

Astronomy

Aug. 17, 2019 Rise Set
Actual Time 6:32 AM MDT 8:22 PM MDT
Civil Twilight 6:01 AM MDT 8:52 PM MDT
Nautical Twilight 5:24 AM MDT 9:29 PM MDT
Astronomical Twilight 4:44 AM MDT 10:09 PM MDT
Moon 9:49 PM MDT (8/17) 8:25 AM MDT (8/17)
Length of Visible Light 14h 50m
Length of Day
13h 50m
Waning Gibbous, 96% of the Moon is Illuminated
Aug 17
Waning Gibbous
Aug 23
Last Quarter
Aug 30
New
Sep 5
First Quarter
Sep 13
Full

Hourly Weather History & Observations

Time (MDT) Temp. Windchill Dew Point Humidity Pressure Visibility Wind Dir Wind Speed Gust Speed Precip Events Conditions
12:15 AM 42.8 °F 41.1 °F 33.8 °F 70% 30.07 in 10.0 mi SW 3.5 mph - N/A   Clear
12:35 AM 42.8 °F 41.1 °F 33.8 °F 70% 30.07 in 10.0 mi South 3.5 mph - N/A   Clear
12:55 AM 44.6 °F 43.1 °F 32.0 °F 61% 30.07 in 10.0 mi South 3.5 mph - N/A   Clear
1:15 AM 44.6 °F 41.4 °F 32.0 °F 61% 30.07 in 10.0 mi SSE 5.8 mph - N/A   Clear
1:35 AM 42.8 °F - 32.0 °F 66% 30.06 in 10.0 mi Calm Calm - N/A   Clear
1:55 AM 39.2 °F 37.0 °F 33.8 °F 81% 30.06 in 10.0 mi SE 3.5 mph - N/A   Clear
2:15 AM 42.8 °F - 33.8 °F 70% 30.05 in 10.0 mi Calm Calm - N/A   Clear
2:35 AM 37.4 °F 34.9 °F 33.8 °F 87% 30.05 in 10.0 mi SSW 3.5 mph - N/A   Clear
2:55 AM 39.2 °F - 32.0 °F 75% 30.05 in 10.0 mi Calm Calm - N/A   Clear
3:15 AM 37.4 °F - 32.0 °F 81% 30.05 in 10.0 mi Calm Calm - N/A   Clear
3:35 AM 41.0 °F - 32.0 °F 70% 30.04 in 10.0 mi Calm Calm - N/A   Clear
3:55 AM 37.4 °F - 32.0 °F 81% 30.05 in 10.0 mi Calm Calm - N/A   Clear
4:15 AM 37.4 °F - 32.0 °F 81% 30.04 in 10.0 mi Calm Calm - N/A   Clear
4:35 AM 37.4 °F - 32.0 °F 81% 30.04 in 10.0 mi Calm Calm - N/A   Clear
4:55 AM 35.6 °F - 32.0 °F 87% 30.03 in 10.0 mi Calm Calm - N/A   Clear
5:15 AM 35.6 °F - 32.0 °F 87% 30.03 in 10.0 mi Calm Calm - N/A   Clear
5:35 AM 33.8 °F - 32.0 °F 93% 30.03 in 10.0 mi Calm Calm - N/A   Clear
5:55 AM 35.6 °F - 32.0 °F 87% 30.04 in 10.0 mi Calm Calm - N/A   Clear
6:15 AM 35.6 °F - 32.0 °F 87% 30.04 in 10.0 mi Calm Calm - N/A   Clear
6:35 AM 33.8 °F - 32.0 °F 93% 30.04 in 10.0 mi Calm Calm - N/A   Clear
6:55 AM 33.8 °F - 32.0 °F 93% 30.05 in 10.0 mi Calm Calm - N/A   Clear
7:15 AM 35.6 °F - 32.0 °F 87% 30.06 in 10.0 mi Calm Calm - N/A   Clear
7:35 AM 37.4 °F - 33.8 °F 87% 30.06 in 10.0 mi Calm Calm - N/A   Clear
7:55 AM 39.2 °F 37.0 °F 33.8 °F 81% 30.07 in 10.0 mi SSW 3.5 mph - N/A   Clear
8:15 AM 42.8 °F 40.1 °F 33.8 °F 70% 30.05 in 10.0 mi South 4.6 mph - N/A   Clear
8:35 AM 46.4 °F - 33.8 °F 62% 30.06 in 10.0 mi Calm Calm - N/A   Clear
8:55 AM 48.2 °F - 35.6 °F 62% 30.05 in 10.0 mi Calm Calm - N/A   Clear
9:15 AM 51.8 °F - 35.6 °F 54% 30.05 in 10.0 mi Calm Calm - N/A   Clear
9:35 AM 53.6 °F - 35.6 °F 51% 30.05 in 10.0 mi Calm Calm - N/A   Clear
9:55 AM 55.4 °F - 37.4 °F 51% 30.05 in 10.0 mi Calm Calm - N/A   Clear
10:15 AM 62.6 °F - 32.0 °F 32% 30.05 in 10.0 mi North - - N/A   Clear
10:35 AM 66.2 °F - 33.8 °F 30% 30.05 in 10.0 mi Calm Calm - N/A   Clear
10:55 AM 66.2 °F - 30.2 °F 26% 30.05 in 10.0 mi Calm Calm - N/A   Clear
11:15 AM 68.0 °F - 32.0 °F 26% 30.05 in 10.0 mi WNW 9.2 mph - N/A   Clear
11:35 AM 69.8 °F - 32.0 °F 25% 30.04 in 10.0 mi West 9.2 mph - N/A   Clear
11:55 AM 69.8 °F - 32.0 °F 25% 30.04 in 10.0 mi WSW 12.7 mph 21.9 mph N/A   Clear
12:15 PM 69.8 °F - 30.2 °F 23% 30.04 in 10.0 mi West 9.2 mph - N/A   Clear
12:35 PM 71.6 °F - 32.0 °F 23% 30.04 in 10.0 mi West 13.8 mph 19.6 mph N/A   Clear
12:55 PM 71.6 °F - 32.0 °F 23% 30.03 in 10.0 mi WNW 3.5 mph - N/A   Clear
1:15 PM 71.6 °F - 32.0 °F 23% 30.03 in 10.0 mi NNW 5.8 mph - N/A   Clear
1:35 PM 71.6 °F - 32.0 °F 23% 30.03 in 10.0 mi SW 4.6 mph 9.2 mph N/A   Clear
1:55 PM 71.6 °F - 32.0 °F 23% 30.03 in 10.0 mi WSW 10.4 mph 19.6 mph N/A   Clear
2:15 PM 73.4 °F - 32.0 °F 22% 30.02 in 10.0 mi WSW 17.3 mph 24.2 mph N/A   Clear
2:35 PM 69.8 °F - 28.4 °F 21% 30.02 in 10.0 mi West 15.0 mph 26.5 mph N/A   Clear
2:55 PM 73.4 °F - 28.4 °F 19% 30.02 in 10.0 mi WSW 19.6 mph 27.6 mph N/A   Clear
3:15 PM 71.6 °F - 24.8 °F 17% 30.03 in 10.0 mi West 18.4 mph 32.2 mph N/A   Clear
3:35 PM 73.4 °F - 28.4 °F 19% 30.02 in 10.0 mi WNW 13.8 mph 20.7 mph N/A   Clear
3:55 PM 73.4 °F - 28.4 °F 19% 30.02 in 10.0 mi West 21.9 mph 27.6 mph N/A   Clear
4:15 PM 73.4 °F - 30.2 °F 20% 30.01 in 10.0 mi West 19.6 mph 24.2 mph N/A   Clear
4:35 PM 73.4 °F - 30.2 °F 20% 30.01 in 10.0 mi WNW 21.9 mph 26.5 mph N/A   Clear
4:55 PM 71.6 °F - 28.4 °F 20% 30.03 in 10.0 mi West 15.0 mph 27.6 mph N/A   Clear
5:15 PM 71.6 °F - 28.4 °F 20% 30.02 in 10.0 mi West 16.1 mph 25.3 mph N/A   Clear
5:35 PM 71.6 °F - 28.4 °F 20% 30.01 in 10.0 mi WSW 15.0 mph 24.2 mph N/A   Clear
5:55 PM 69.8 °F - 30.2 °F 23% 30.01 in 10.0 mi West 8.1 mph - N/A   Clear
6:15 PM 69.8 °F - 28.4 °F 21% 30.01 in 10.0 mi West 13.8 mph 24.2 mph N/A   Clear
6:35 PM 69.8 °F - 28.4 °F 21% 30.01 in 10.0 mi West 10.4 mph 17.3 mph N/A   Clear
6:55 PM 69.8 °F - 32.0 °F 25% 30.01 in 10.0 mi WNW 9.2 mph - N/A   Clear
7:15 PM 69.8 °F - 26.6 °F 20% 30.00 in 10.0 mi West 9.2 mph - N/A   Clear
7:35 PM 66.2 °F - 33.8 °F 30% 29.99 in 10.0 mi West 4.6 mph - N/A   Clear
7:55 PM 66.2 °F - 32.0 °F 28% 30.00 in 10.0 mi Calm Calm - N/A   Clear
8:15 PM 60.8 °F - 30.2 °F 31% 30.00 in 10.0 mi Calm Calm - N/A   Clear
8:35 PM 57.2 °F - 30.2 °F 36% 30.01 in 10.0 mi ENE 4.6 mph - N/A   Clear
8:55 PM 53.6 °F - 32.0 °F 44% 30.01 in 10.0 mi Calm Calm - N/A   Clear
9:15 PM 50.0 °F - 33.8 °F 54% 30.02 in 10.0 mi SSE 4.6 mph - N/A   Clear
9:35 PM 50.0 °F - 33.8 °F 54% 30.03 in 10.0 mi Calm Calm - N/A   Clear
9:55 PM 44.6 °F 43.1 °F 35.6 °F 71% 30.04 in 10.0 mi SSW 3.5 mph - N/A   Clear
10:15 PM 44.6 °F 40.7 °F 33.8 °F 66% 30.04 in 10.0 mi South 6.9 mph - N/A   Clear
10:35 PM 48.2 °F - 32.0 °F 54% 30.04 in 10.0 mi SSW 4.6 mph - N/A   Clear
10:55 PM 44.6 °F 40.2 °F 32.0 °F 61% 30.04 in 10.0 mi South 8.1 mph - N/A   Clear
11:15 PM 46.4 °F 45.2 °F 32.0 °F 57% 30.04 in 10.0 mi SSW 3.5 mph - N/A   Clear
11:35 PM 50.0 °F - 32.0 °F 50% 30.04 in 10.0 mi Calm Calm - N/A   Clear
11:55 PM 42.8 °F - 32.0 °F 66% 30.04 in 10.0 mi Calm Calm - N/A   Clear